TimePDT,TemperatureF,Dew PointF,Humidity,Sea Level PressureIn,VisibilityMPH,Wind Direction,Wind SpeedMPH,Gust SpeedMPH,PrecipitationIn,Events,Conditions,WindDirDegrees,DateUTC
12:15 AM,59.0,53.6,82,30.09,10.0,SW,4.6,-,N/A,,Clear,220,2012-10-06 07:15:00
12:30 AM,59.0,53.6,82,30.09,10.0,SSW,3.5,-,N/A,,Clear,210,2012-10-06 07:30:00
12:50 AM,59.0,53.6,82,30.08,10.0,SW,3.5,-,N/A,,Clear,220,2012-10-06 07:50:00
1:15 AM,59.0,53.6,82,30.08,10.0,Calm,Calm,-,N/A,,Scattered Clouds,0,2012-10-06 08:15:00
1:30 AM,59.0,53.6,82,30.09,10.0,SSE,3.5,-,N/A,,Mostly Cloudy,150,2012-10-06 08:30:00
1:50 AM,59.0,53.6,82,30.09,10.0,SW,3.5,-,N/A,,Mostly Cloudy,220,2012-10-06 08:50:00
2:30 AM,59.0,53.6,82,30.09,10.0,Calm,Calm,-,N/A,,Clear,0,2012-10-06 09:30:00
2:50 AM,59.0,53.6,82,30.08,10.0,NNW,3.5,-,N/A,,Clear,330,2012-10-06 09:50:00
3:10 AM,57.2,53.6,88,30.08,10.0,NW,4.6,-,N/A,,Clear,310,2012-10-06 10:10:00
3:30 AM,57.2,53.6,88,30.07,10.0,WNW,4.6,-,N/A,,Clear,300,2012-10-06 10:30:00
3:55 AM,57.2,53.6,88,30.07,10.0,Calm,Calm,-,N/A,,Partly Cloudy,0,2012-10-06 10:55:00
4:10 AM,57.2,53.6,88,30.06,10.0,Calm,Calm,-,N/A,,Clear,0,2012-10-06 11:10:00
4:30 AM,57.2,53.6,88,30.07,10.0,Calm,Calm,-,N/A,,Partly Cloudy,0,2012-10-06 11:30:00
4:50 AM,57.2,53.6,88,30.06,10.0,Calm,Calm,-,N/A,,Clear,0,2012-10-06 11:50:00
5:10 AM,57.2,53.6,88,30.06,10.0,Calm,Calm,-,N/A,,Clear,0,2012-10-06 12:10:00
5:35 AM,57.2,53.6,88,30.06,10.0,Calm,Calm,-,N/A,,Clear,0,2012-10-06 12:35:00
5:50 AM,57.2,53.6,88,30.07,10.0,Calm,Calm,-,N/A,,Clear,0,2012-10-06 12:50:00
6:10 AM,57.2,53.6,88,30.07,10.0,Calm,Calm,-,N/A,,Scattered Clouds,0,2012-10-06 13:10:00
6:30 AM,57.2,53.6,88,30.07,10.0,Calm,Calm,-,N/A,,Overcast,0,2012-10-06 13:30:00
6:47 AM,57.2,53.6,88,30.08,10.0,WNW,3.5,-,N/A,,Mostly Cloudy,300,2012-10-06 13:47:00
6:50 AM,57.2,53.6,88,30.08,10.0,Calm,Calm,-,N/A,,Overcast,0,2012-10-06 13:50:00
7:48 AM,59.0,53.6,82,30.08,10.0,Calm,Calm,-,N/A,,Scattered Clouds,0,2012-10-06 14:48:00
8:47 AM,60.8,55.4,82,30.08,10.0,Calm,Calm,-,N/A,,Mostly Cloudy,0,2012-10-06 15:47:00
9:47 AM,62.6,55.4,77,30.08,10.0,Calm,Calm,-,N/A,,Mostly Cloudy,0,2012-10-06 16:47:00
11:49 AM,66.2,53.6,64,30.07,10.0,NE,8.1,-,N/A,,Mostly Cloudy,50,2012-10-06 18:49:00
12:51 PM,68.0,50.0,52,30.06,10.0,North,6.9,-,N/A,,Mostly Cloudy,360,2012-10-06 19:51:00
1:47 PM,68.0,50.0,52,30.03,30.0,North,15.0,-,N/A,,Mostly Cloudy,360,2012-10-06 20:47:00
2:49 PM,71.6,48.2,43,30.01,30.0,NW,10.4,-,N/A,,Scattered Clouds,320,2012-10-06 21:49:00
3:47 PM,71.6,48.2,43,30.01,30.0,NNW,10.4,17.3,N/A,,Scattered Clouds,330,2012-10-06 22:47:00
4:47 PM,71.6,48.2,43,29.99,30.0,NW,11.5,-,N/A,,Partly Cloudy,320,2012-10-06 23:47:00
5:48 PM,68.0,46.4,46,29.98,30.0,WNW,11.5,-,N/A,,Partly Cloudy,300,2012-10-07 00:48:00
6:49 PM,64.4,48.2,56,29.99,20.0,West,12.7,-,N/A,,Clear,270,2012-10-07 01:49:00
7:47 PM,62.6,46.4,55,29.99,10.0,West,6.9,-,N/A,,Clear,280,2012-10-07 02:47:00
9:15 PM,59.0,46.4,63,30.00,10.0,WNW,6.9,-,N/A,,Clear,290,2012-10-07 04:15:00
9:30 PM,59.0,48.2,67,30.00,10.0,WNW,8.1,-,N/A,,Clear,300,2012-10-07 04:30:00
9:55 PM,59.0,46.4,63,30.00,10.0,NW,4.6,-,N/A,,Clear,320,2012-10-07 04:55:00
10:10 PM,59.0,46.4,63,30.01,10.0,NW,4.6,-,N/A,,Clear,310,2012-10-07 05:10:00
10:30 PM,59.0,48.2,67,30.01,10.0,NNW,3.5,-,N/A,,Clear,330,2012-10-07 05:30:00
10:55 PM,59.0,48.2,67,30.01,10.0,WNW,3.5,-,N/A,,Clear,290,2012-10-07 05:55:00
11:10 PM,59.0,48.2,67,30.01,10.0,Calm,Calm,-,N/A,,Clear,0,2012-10-07 06:10:00
11:35 PM,59.0,46.4,63,30.01,10.0,Calm,Calm,-,N/A,,Clear,0,2012-10-07 06:35:00
11:50 PM,57.2,46.4,67,30.01,10.0,WSW,3.5,-,N/A,,Clear,250,2012-10-07 06:50:00